Weather History for Billings, MT

Change the Weather History Date:

Sunday, March 18, 2012

  Actual Average Record
Temperature  
Mean Temperature 47 °F 38 °F  
Max Temperature 55 °F 49 °F 71 °F (2004)
Min Temperature 38 °F 27 °F -9 °F (1965)
Degree Days  
Heating Degree Days 18 27  
Month to date heating degree days 342 522  
Since 1 July heating degree days 4850 5487  
Cooling Degree Days 0 0  
Month to date cooling degree days 0 0  
Year to date cooling degree days 0 0  
Moisture  
Dew Point 34 °F    
Average Humidity 60    
Maximum Humidity 73    
Minimum Humidity 46    
Precipitation  
Precipitation 0.01 in 0.04 in 0.40 in (1968)
Month to date precipitation 0.11 0.53  
Year to date precipitation 0.96 1.49  
Snow  
Snow 0.00 in 0.30 in 4.30 in (1968)
Month to date snowfall 1.2 5.8  
Since 1 July snowfall 30.0 40.3  
Snow Depth 0.00 in    
Sea Level Pressure  
Sea Level Pressure 29.31 in    
Wind  
Wind Speed 13 mph (NE)    
Max Wind Speed 23 mph    
Max Gust Speed 29 mph    
Visibility 10 miles    
Events Rain    
T = Trace of Precipitation, MM = Missing Value Source: NWS Daily Summary

Daily Weather History Graph

Daily Weather History Graph

Search for Another Location

Airport:

Trip Planner

Search our weather history database for the weather conditions in past years. The results will help you decide how hot, cold, wet, or windy it might be!

Date:

Astronomy

Mar. 18, 2012 Rise Set
Actual Time 7:19 AM MDT 7:24 PM MDT
Civil Twilight 6:50 AM MDT 7:54 PM MDT
Nautical Twilight 6:15 AM MDT 8:29 PM MDT
Astronomical Twilight 5:39 AM MDT 9:05 PM MDT
Moon 5:11 AM MDT (3/18) 3:45 PM MDT (3/18)
Length of Visible Light 13h 04m
Length of Day
12h 04m
Waning Crescent, 14% of the Moon is Illuminated
Mar 18
Waning Crescent
Mar 22
New
Mar 30
First Quarter
Apr 6
Full
Apr 13
Last Quarter

Hourly Weather History & Observations

Time (MDT) Temp. Windchill Dew Point Humidity Pressure Visibility Wind Dir Wind Speed Gust Speed Precip Events Conditions
12:53 AM 50.0 °F - 34.0 °F 54% 29.36 in 10.0 mi NW 15.0 mph - N/A   Clear
1:53 AM 48.9 °F - 34.0 °F 56% 29.34 in 10.0 mi NW 15.0 mph - N/A   Clear
2:53 AM 46.9 °F - 34.0 °F 61% 29.37 in 10.0 mi North 8.1 mph - N/A   Clear
3:53 AM 45.0 °F 41.8 °F 34.0 °F 65% 29.36 in 10.0 mi NNE 5.8 mph - N/A   Clear
4:53 AM 42.1 °F 37.1 °F 34.0 °F 73% 29.36 in 10.0 mi ENE 8.1 mph - N/A   Clear
5:53 AM 41.0 °F 39.0 °F 33.1 °F 73% 29.37 in 10.0 mi East 3.5 mph - N/A   Clear
6:53 AM 43.0 °F 39.5 °F 30.9 °F 62% 29.37 in 10.0 mi ESE 5.8 mph - N/A   Clear
7:53 AM 39.9 °F 35.1 °F 30.9 °F 70% 29.40 in 10.0 mi NNE 6.9 mph - N/A   Partly Cloudy
8:53 AM 41.0 °F 34.3 °F 33.1 °F 73% 29.41 in 10.0 mi NE 11.5 mph - N/A   Partly Cloudy
9:53 AM 43.0 °F 35.4 °F 33.1 °F 68% 29.39 in 10.0 mi NE 16.1 mph 21.9 mph N/A   Partly Cloudy
10:53 AM 45.0 °F 38.2 °F 33.1 °F 63% 29.39 in 10.0 mi ENE 15.0 mph - N/A   Partly Cloudy
11:53 AM 48.0 °F - 33.1 °F 56% 29.34 in 10.0 mi ENE 18.4 mph 25.3 mph N/A   Partly Cloudy
12:53 PM 48.9 °F - 33.1 °F 54% 29.31 in 10.0 mi ENE 18.4 mph - N/A   Partly Cloudy
1:53 PM 52.0 °F - 34.0 °F 50% 29.27 in 10.0 mi ENE 18.4 mph 27.6 mph N/A   Partly Cloudy
2:53 PM 53.1 °F - 34.0 °F 48% 29.23 in 10.0 mi ENE 17.3 mph 28.8 mph N/A   Partly Cloudy
3:53 PM 53.6 °F - 35.6 °F 51% 29.24 in 10.0 mi ENE 15.0 mph - N/A   Partly Cloudy
4:53 PM 53.1 °F - 35.1 °F 50% 29.22 in 10.0 mi NE 17.3 mph 24.2 mph N/A   Scattered Clouds
5:53 PM 51.1 °F - 35.1 °F 54% 29.21 in 10.0 mi NE 18.4 mph - N/A   Scattered Clouds
6:53 PM 51.1 °F - 35.1 °F 54% 29.22 in 10.0 mi North 11.5 mph - N/A   Scattered Clouds
7:53 PM 48.9 °F - 34.0 °F 56% 29.24 in 10.0 mi North 15.0 mph - N/A   Scattered Clouds
8:53 PM 46.0 °F 39.6 °F 33.1 °F 61% 29.25 in 10.0 mi North 15.0 mph - N/A   Mostly Cloudy
9:53 PM 46.0 °F 41.4 °F 32.0 °F 58% 29.24 in 10.0 mi North 9.2 mph - N/A   Mostly Cloudy
10:53 PM 46.0 °F 39.6 °F 30.9 °F 56% 29.24 in 10.0 mi North 15.0 mph - N/A   Overcast
11:53 PM 42.1 °F 37.7 °F 35.1 °F 76% 29.25 in 10.0 mi NNE 6.9 mph - 0.00 in Rain Light Rain